Regional Weather Roundup
Issued by NWS

Home | Current Version | Previous Version | Text Only | Print | Product List | Glossary Off
Versions: 1 2 3 4 5 6 7 8 9 10 11 12 13 14 15 16 17 18 19 20 21 22 23 24 25 26 27 28 29 30 31 32 33 34 35 36 37 38 39 40 41 42 43 44 45 46 47 48 49 50

369
ASUS45 KSLC 170110
RWRUT

UTAH REGIONAL WEATHER ROUNDUP
NATIONAL WEATHER SERVICE SALT LAKE CITY UT
600 PM MST MON JAN 16 2017

UTZ001>011-023>025-170200-

NORTHERN UTAH

CITY           SKY/WX    TMP DP  RH WIND       PRES   REMARKS
BRIGHAM CITY     N/A     17  10  74 CALM      30.30S
HILL AFB       PTCLDY    21  14  75 NW7       30.26R WCI  12
LOGAN          CLOUDY     6   4  91 N5        30.31R WCI  -3
OGDEN          PTCLDY    19  14  81 NW6       30.27R WCI  11
SALT LAKE CITY PTCLDY    25  18  74 W7        30.28R WCI  17
TOOELE VALLEY  PTCLDY    23  19  86 N5        30.28R WCI  17
WENDOVER       PTCLDY    27  19  74 CALM      30.29R
HEBER CITY     MOCLDY     3   0  85 CALM      30.21S
WEST JORDAN    PTCLDY    24  23  96 NW5       30.26R WCI  18

$$

UTZ011>015-024>027-170200-

CENTRAL/NORTHEAST UTAH

CITY           SKY/WX    TMP DP  RH WIND       PRES   REMARKS
PROVO AIRPORT  PTCLDY    28  21  74 VRB6      30.26S WCI  22
MOAB/CANYONLAN PTCLDY    39  25  57 E6        30.06R WCI  35
DELTA          PTCLDY    27  21  80 NW5       30.23S WCI  21
PRICE          PTCLDY    30  12  47 N13       30.08R WCI  20
RICHFIELD      CLOUDY    30  21  69 NE9       30.22R WCI  22
ROOSEVELT      CLEAR     25  19  80 CALM      30.22R
VERNAL         CLOUDY    21  16  81 CALM      30.19R

$$

UTZ013>016-019>022-027-170200-

SOUTHERN UTAH

CITY           SKY/WX    TMP DP  RH WIND       PRES   REMARKS
BRYCE CANYON   PTCLDY    20  12  71 NW8       30.08R WCI  10
CEDAR CITY     CLOUDY    27  20  75 N9        30.15R WCI  18
MILFORD        PTCLDY    29  21  72 NE13      30.20R WCI  19
ST GEORGE      MOCLDY    45  25  45 NE8       30.12R
HANKSVILLE     CLEAR     41  28  60 MISG      30.09S
KANAB          CLEAR     37  30  75 CALM      30.09R
BLANDING       CLOUDY    37  25  62 NW6       30.10R WCI  32

$$

REGIONAL REPORTS     COLORADO/ARIZONA

CITY           SKY/WX    TMP DP  RH WIND       PRES   REMARKS
CRAIG, CO      CLOUDY    16  11  80 E3        30.18R
GRAND JUNCTION CLOUDY    34  25  69 NE7       30.09R WCI  28
RIFLE, CO      CLOUDY    31  21  66 NW6       30.11R WCI  25
MONTROSE, CO   CLOUDY    34  23  64 NE3       30.11R
CORTEZ, CO     MIX PCPN  34  33  96 S5        30.03R FOG     WCI  30
COLORADO CITY    N/A     37  28  70 NW6       30.09R WCI  33
PAGE, AZ       PTCLDY    44  28  53 SE3       30.03R
GRAND CANYON   MOCLDY    35  31  85 CALM      30.05R
KINGMAN, AZ    PTCLDY    43  23  45 N9        30.05R
FLAGSTAFF, AZ  CLOUDY    37  32  82 S3        30.04R

$$

REGIONAL REPORTS    NEVADA/IDAHO/WYOMING

CITY           SKY/WX    TMP DP  RH WIND       PRES   REMARKS
LAS VEGAS, NV  PTCLDY    54  15  21 NE10      30.07R
ELY, NY        PTCLDY    11   8  88 S3        30.19S
ELKO, NV       CLOUDY    22  15  75 NW6       30.29R WCI  14
POCATELLO, ID  CLOUDY     3   0  87 N6        30.35R WCI  -8
BURLEY, ID     MOCLDY    14   8  77 N5        30.32R WCI   6
FORT BRIDGER,    N/A      9   8  96 SW7       30.18S WCI  -2
EVANSTON, WY   CLOUDY     6   1  80 E3        30.17R
ROCK SPRINGS,  CLOUDY     2  -3  80 W3        30.17R

$$




USA.gov is the U.S. government's official web portal to all federal, state and local government web resources and services.